| time (UTC) | temp F | wind direction | speed knots | gust knots | rain 1hr in | rain 24hr in | rain mn in | humidity % | barometer mb |
| 20260906200909 | 81 | 165 | 3.5 | 7.8 | 0.00 | 0.00 | 0.00 | 72 | 1016.5 |
| 20260906200406 | 81 | 154 | 4.3 | 8.7 | 0.00 | 0.00 | 0.00 | 72 | 1016.4 |
| 20260906195905 | 81 | 169 | 2.6 | 9.6 | 0.00 | 0.00 | 0.00 | 72 | 1016.0 |
| 20260906195402 | 81 | 156 | 3.5 | 13.0 | 0.00 | 0.00 | 0.00 | 72 | 1016.1 |
| 20260906194857 | 82 | 148 | 3.5 | 7.0 | 0.00 | 0.00 | 0.00 | 71 | 1015.8 |
| 20260906194353 | 82 | 129 | 3.5 | 7.8 | 0.00 | 0.00 | 0.00 | 71 | 1016.0 |
| 20260906193848 | 83 | 176 | 4.3 | 6.1 | 0.00 | 0.00 | 0.00 | 68 | 1016.0 |
| 20260906193343 | 84 | 156 | 3.5 | 6.1 | 0.00 | 0.00 | 0.00 | 68 | 1016.0 |
| 20260906192839 | 83 | 130 | 2.6 | 6.1 | 0.00 | 0.00 | 0.00 | 69 | 1016.0 |
| 20260906192333 | 83 | 109 | 7.0 | 8.7 | 0.00 | 0.00 | 0.00 | 68 | 1015.8 |
| 20260906191833 | 83 | 130 | 5.2 | 5.2 | 0.00 | 0.00 | 0.00 | 70 | 1016.1 |
| 20260906191333 | 84 | 125 | 5.2 | 9.6 | 0.00 | 0.00 | 0.00 | 68 | 1015.9 |
| 20260906190827 | 84 | 147 | 1.7 | 7.8 | 0.00 | 0.00 | 0.00 | 69 | 1015.9 |
| 20260906190327 | 83 | 139 | 2.6 | 7.8 | 0.00 | 0.00 | 0.00 | 69 | 1016.1 |
| 20260906185827 | 83 | 153 | 5.2 | 5.2 | 0.00 | 0.00 | 0.00 | 69 | 1016.2 |
| 20260906185326 | 83 | 145 | 6.1 | 9.6 | 0.00 | 0.00 | 0.00 | 70 | 1016.0 |
| 20260906184820 | 83 | 147 | 1.7 | 6.1 | 0.00 | 0.00 | 0.00 | 70 | 1016.1 |
| 20260906184315 | 83 | 155 | 4.3 | 6.1 | 0.00 | 0.00 | 0.00 | 68 | 1016.2 |
| 20260906183811 | 83 | 151 | 2.6 | 5.2 | 0.00 | 0.00 | 0.00 | 70 | 1016.0 |
| 20260906183308 | 82 | 183 | 2.6 | 5.2 | 0.00 | 0.00 | 0.00 | 70 | 1016.2 |
| 20260906182807 | 82 | 180 | 3.5 | 10.4 | 0.00 | 0.00 | 0.00 | 71 | 1016.1 |
| 20260906182306 | 82 | 141 | 2.6 | 7.0 | 0.00 | 0.00 | 0.00 | 72 | 1016.6 |
| 20260906181758 | 82 | 135 | 3.5 | 9.6 | 0.00 | 0.00 | 0.00 | 72 | 1016.4 |
| 20260906181254 | 82 | 153 | 7.8 | 7.8 | 0.00 | 0.00 | 0.00 | 71 | 1016.3 |
| 20260906180749 | 82 | 157 | 0.0 | 9.6 | 0.00 | 0.00 | 0.00 | 73 | 1016.4 |
| 20260906180244 | 82 | 135 | 1.7 | 7.0 | 0.00 | 0.00 | 0.00 | 73 | 1016.0 |
| 20260906175741 | 82 | 190 | 4.3 | 6.1 | 0.00 | 0.00 | 0.00 | 72 | 1016.4 |
| 20260906175237 | 83 | 129 | 1.7 | 2.6 | 0.00 | 0.00 | 0.00 | 73 | 1016.1 |
| 20260906174735 | 82 | 129 | 1.7 | 8.7 | 0.00 | 0.00 | 0.00 | 73 | 1016.1 |
| 20260906174230 | 82 | 154 | 2.6 | 3.5 | 0.00 | 0.00 | 0.00 | 74 | 1016.1 |
| 20260906173725 | 83 | 161 | 0.9 | 5.2 | 0.00 | 0.00 | 0.00 | 73 | 1016.2 |
| 20260906173221 | 82 | 164 | 3.5 | 7.0 | 0.00 | 0.00 | 0.00 | 75 | 1016.3 |
| 20260906172720 | 82 | 155 | 3.5 | 5.2 | 0.00 | 0.00 | 0.00 | 74 | 1016.4 |
| 20260906172215 | 81 | 201 | 1.7 | 7.0 | 0.00 | 0.00 | 0.00 | 74 | 1016.5 |
| 20260906171710 | 82 | 156 | 5.2 | 8.7 | 0.00 | 0.00 | 0.00 | 72 | 1016.3 |
| 20260906171206 | 82 | 149 | 7.0 | 7.0 | 0.00 | 0.00 | 0.00 | 74 | 1016.5 |
| 20260906170702 | 81 | 119 | 2.6 | 5.2 | 0.00 | 0.00 | 0.00 | 76 | 1016.5 |
| 20260906170202 | 80 | 154 | 4.3 | 7.8 | 0.00 | 0.00 | 0.00 | 76 | 1016.7 |
| 20260906165658 | 81 | 156 | 2.6 | 5.2 | 0.00 | 0.00 | 0.00 | 76 | 1016.8 |
| 20260906165158 | 81 | 108 | 2.6 | 4.3 | 0.00 | 0.00 | 0.00 | 75 | 1016.7 |
| 20260906164656 | 80 | 147 | 0.9 | 5.2 | 0.00 | 0.00 | 0.00 | 77 | 1017.0 |
| 20260906164152 | 79 | 168 | 2.6 | 5.2 | 0.00 | 0.00 | 0.00 | 79 | 1016.8 |
| 20260906163648 | 80 | 116 | 0.9 | 5.2 | 0.00 | 0.00 | 0.00 | 78 | 1016.9 |
| 20260906163144 | 80 | 148 | 2.6 | 9.6 | 0.00 | 0.00 | 0.00 | 79 | 1016.9 |
| 20260906162641 | 79 | 157 | 0.0 | 5.2 | 0.00 | 0.00 | 0.00 | 80 | 1017.0 |
| 20260906162140 | 78 | 126 | 3.5 | 5.2 | 0.00 | 0.00 | 0.00 | 80 | 1017.0 |
| 20260906161635 | 77 | 161 | 3.5 | 8.7 | 0.00 | 0.00 | 0.00 | 82 | 1017.1 |
| 20260906161134 | 77 | 145 | 2.6 | 5.2 | 0.00 | 0.00 | 0.00 | 83 | 1017.1 |
| 20260906160633 | 77 | 152 | 6.1 | 8.7 | 0.00 | 0.00 | 0.00 | 82 | 1017.1 |
| 20260906160133 | 77 | 164 | 3.5 | 4.3 | 0.00 | 0.00 | 0.00 | 82 | 1017.2 |
| 20260906155630 | 77 | 117 | 3.5 | 5.2 | 0.00 | 0.00 | 0.00 | 84 | 1017.2 |
| 20260906155126 | 76 | 160 | 1.7 | 6.1 | 0.00 | 0.00 | 0.00 | 83 | 1017.4 |
| 20260906154621 | 77 | 146 | 6.1 | 6.1 | 0.00 | 0.00 | 0.00 | 83 | 1017.5 |
| 20260906154120 | 75 | 119 | 1.7 | 3.5 | 0.00 | 0.00 | 0.00 | 85 | 1017.7 |
| 20260906153619 | 75 | 109 | 1.7 | 4.3 | 0.00 | 0.00 | 0.00 | 85 | 1017.5 |
| 20260906153115 | 76 | 118 | 0.0 | 5.2 | 0.00 | 0.00 | 0.00 | 85 | 1017.6 |
| 20260906152615 | 75 | 139 | 1.7 | 4.3 | 0.00 | 0.00 | 0.00 | 84 | 1017.6 |
| 20260906152109 | 75 | 151 | 6.1 | 7.8 | 0.00 | 0.00 | 0.00 | 85 | 1017.7 |
| 20260906151604 | 75 | 120 | 0.9 | 4.3 | 0.00 | 0.00 | 0.00 | 87 | 1017.5 |
| 20260906151100 | 73 | 150 | 3.5 | 7.8 | 0.00 | 0.00 | 0.00 | 88 | 1017.6 |
| 20260906150555 | 73 | 154 | 3.5 | 7.8 | 0.00 | 0.00 | 0.00 | 88 | 1017.5 |
| 20260906150050 | 74 | 137 | 3.5 | 8.7 | 0.00 | 0.00 | 0.00 | 88 | 1017.3 |
| 20260906145549 | 74 | 134 | 1.7 | 3.5 | 0.00 | 0.00 | 0.00 | 89 | 1017.2 |
| 20260906145044 | 73 | 133 | 1.7 | 9.6 | 0.00 | 0.00 | 0.00 | 91 | 1017.6 |
| 20260906144538 | 72 | 157 | 0.0 | 5.2 | 0.00 | 0.00 | 0.00 | 91 | 1017.6 |
| 20260906144033 | 72 | 153 | 1.7 | 5.2 | 0.00 | 0.00 | 0.00 | 91 | 1017.7 |
| 20260906143528 | 72 | 123 | 2.6 | 4.3 | 0.00 | 0.00 | 0.00 | 92 | 1017.7 |
| 20260906143026 | 71 | 156 | 0.0 | 3.5 | 0.00 | 0.00 | 0.00 | 92 | 1017.7 |
| 20260906142524 | 71 | 125 | 2.6 | 3.5 | 0.00 | 0.00 | 0.00 | 92 | 1017.7 |
| 20260906142021 | 71 | 137 | 1.7 | 3.5 | 0.00 | 0.00 | 0.00 | 92 | 1017.8 |
| 20260906141519 | 71 | 133 | 1.7 | 2.6 | 0.00 | 0.00 | 0.00 | 93 | 1017.9 |
| 20260906141015 | 70 | 118 | 1.7 | 3.5 | 0.00 | 0.00 | 0.00 | 94 | 1017.9 |
| 20260906140508 | 71 | 92 | 0.9 | 2.6 | 0.00 | 0.00 | 0.00 | 94 | 1018.0 |
| 20260906140008 | 70 | 123 | 1.7 | 3.5 | 0.00 | 0.00 | 0.00 | 94 | 1018.1 |
| 20260906135505 | 70 | 172 | 0.0 | 2.6 | 0.00 | 0.00 | 0.00 | 94 | 1018.2 |
| 20260906135001 | 69 | 91 | 0.9 | 1.7 | 0.00 | 0.00 | 0.00 | 95 | 1018.0 |
| 20260906134456 | 69 | 118 | 1.7 | 2.6 | 0.00 | 0.00 | 0.00 | 95 | 1018.1 |
| 20260906133951 | 69 | 111 | 2.6 | 3.5 | 0.00 | 0.00 | 0.00 | 95 | 1017.8 |
| 20260906133447 | 68 | 99 | 1.7 | 5.2 | 0.00 | 0.00 | 0.00 | 96 | 1017.7 |
| 20260906132942 | 68 | 127 | 0.9 | 6.1 | 0.00 | 0.00 | 0.00 | 96 | 1017.7 |
| 20260906132437 | 69 | 131 | 1.7 | 2.6 | 0.00 | 0.00 | 0.00 | 95 | 1017.5 |
| 20260906131933 | 68 | 114 | 1.7 | 4.3 | 0.00 | 0.00 | 0.00 | 95 | 1017.6 |
| 20260906131428 | 68 | 145 | 2.6 | 4.3 | 0.00 | 0.00 | 0.00 | 97 | 1017.6 |
| 20260906130924 | 67 | 141 | 1.7 | 3.5 | 0.00 | 0.00 | 0.00 | 98 | 1017.6 |
| 20260906130423 | 66 | 124 | 1.7 | 3.5 | 0.00 | 0.00 | 0.00 | 98 | 1017.4 |
| 20260906125922 | 66 | 144 | 1.7 | 2.6 | 0.00 | 0.00 | 0.00 | 99 | 1017.2 |
| 20260906125420 | 65 | 125 | 2.6 | 3.5 | 0.00 | 0.00 | 0.00 | 99 | 1017.1 |
| 20260906124914 | 65 | 121 | 1.7 | 4.3 | 0.00 | 0.00 | 0.00 | 99 | 1017.4 |
| 20260906124410 | 64 | 98 | 2.6 | 3.5 | 0.00 | 0.00 | 0.00 | 99 | 1017.3 |
| 20260906123910 | 64 | 127 | 0.0 | 2.6 | 0.00 | 0.00 | 0.00 | 99 | 1017.3 |
| 20260906123404 | 64 | 116 | 0.9 | 1.7 | 0.00 | 0.00 | 0.00 | 99 | 1017.4 |
| 20260906122904 | 64 | 104 | 2.6 | 3.5 | 0.00 | 0.00 | 0.00 | 99 | 1017.2 |
| 20260906122358 | 64 | 140 | 2.6 | 3.5 | 0.00 | 0.00 | 0.00 | 99 | 1017.2 |
| 20260906121855 | 64 | 116 | 1.7 | 2.6 | 0.00 | 0.00 | 0.00 | 99 | 1017.1 |
| 20260906121351 | 64 | 131 | 1.7 | 1.7 | 0.00 | 0.00 | 0.00 | 99 | 1017.1 |
| 20260906120847 | 64 | 125 | 1.7 | 2.6 | 0.00 | 0.00 | 0.00 | 99 | 1017.1 |
| 20260906120343 | 64 | 89 | 0.0 | 2.6 | 0.00 | 0.00 | 0.00 | 99 | 1016.9 |
| 20260906115839 | 64 | 89 | 0.9 | 2.6 | 0.00 | 0.00 | 0.00 | 99 | 1016.8 |
| 20260906115334 | 64 | 127 | 0.9 | 2.6 | 0.00 | 0.00 | 0.00 | 99 | 1016.7 |
| 20260906114833 | 64 | 112 | 0.9 | 2.6 | 0.00 | 0.00 | 0.00 | 99 | 1016.6 |
| 20260906114328 | 64 | 141 | 3.5 | 5.2 | 0.00 | 0.00 | 0.00 | 99 | 1016.6 |
| 20260906113823 | 63 | 176 | 3.5 | 4.3 | 0.00 | 0.00 | 0.00 | 99 | 1016.6 |
| 20260906113323 | 63 | 146 | 3.5 | 4.3 | 0.00 | 0.00 | 0.00 | 99 | 1016.6 |
| 20260906112818 | 63 | 127 | 1.7 | 3.5 | 0.00 | 0.00 | 0.00 | 99 | 1016.6 |
| 20260906112314 | 63 | 114 | 2.6 | 2.6 | 0.00 | 0.00 | 0.00 | 99 | 1016.8 |
| 20260906111814 | 63 | 110 | 1.7 | 1.7 | 0.00 | 0.00 | 0.00 | 99 | 1016.8 |
| 20260906111313 | 63 | 142 | 1.7 | 2.6 | 0.00 | 0.00 | 0.00 | 99 | 1016.8 |
| 20260906110809 | 63 | 119 | 2.6 | 3.5 | 0.00 | 0.00 | 0.00 | 99 | 1016.8 |
| 20260906110305 | 63 | 155 | 1.7 | 2.6 | 0.00 | 0.00 | 0.00 | 99 | 1016.9 |
| 20260906105803 | 63 | 158 | 0.9 | 1.7 | 0.00 | 0.00 | 0.00 | 99 | 1016.8 |
| 20260906105259 | 63 | 101 | 1.7 | 2.6 | 0.00 | 0.00 | 0.00 | 99 | 1017.0 |
| 20260906104754 | 63 | 88 | 1.7 | 1.7 | 0.00 | 0.00 | 0.00 | 99 | 1016.8 |
| 20260906104253 | 63 | 102 | 1.7 | 2.6 | 0.00 | 0.00 | 0.00 | 99 | 1017.1 |
| 20260906103751 | 63 | 104 | 0.0 | 1.7 | 0.00 | 0.00 | 0.00 | 99 | 1017.2 |
| 20260906103245 | 63 | 103 | 0.0 | 1.7 | 0.00 | 0.00 | 0.00 | 99 | 1017.2 |
| 20260906102742 | 63 | 113 | 1.7 | 1.7 | 0.00 | 0.00 | 0.00 | 99 | 1017.3 |
| 20260906102240 | 63 | 59 | 1.7 | 1.7 | 0.00 | 0.00 | 0.00 | 99 | 1017.0 |
| 20260906101736 | 63 | 118 | 1.7 | 1.7 | 0.00 | 0.00 | 0.00 | 99 | 1016.9 |
| 20260906101230 | 63 | 130 | 0.0 | 1.7 | 0.00 | 0.00 | 0.00 | 99 | 1017.1 |
| 20260906100726 | 63 | 87 | 0.9 | 1.7 | 0.00 | 0.00 | 0.00 | 99 | 1017.1 |
| 20260906100220 | 63 | 135 | 0.0 | 1.7 | 0.00 | 0.00 | 0.00 | 99 | 1017.1 |
| 20260906095720 | 64 | 89 | 0.0 | 1.7 | 0.00 | 0.00 | 0.00 | 99 | 1017.1 |
| 20260906095216 | 64 | 116 | 0.0 | 0.9 | 0.00 | 0.00 | 0.00 | 99 | 1016.8 |
| 20260906094714 | 64 | 127 | 1.7 | 1.7 | 0.00 | 0.00 | 0.00 | 99 | 1016.8 |
| 20260906094210 | 64 | 114 | 1.7 | 1.7 | 0.00 | 0.00 | 0.00 | 99 | 1016.4 |
| 20260906093706 | 64 | 91 | 0.9 | 1.7 | 0.00 | 0.00 | 0.00 | 99 | 1016.5 |
| 20260906093201 | 64 | 141 | 0.0 | 0.9 | 0.00 | 0.00 | 0.00 | 99 | 1016.5 |
| 20260906092657 | 64 | 89 | 0.0 | 0.9 | 0.00 | 0.00 | 0.00 | 99 | 1016.3 |
| 20260906092155 | 64 | 89 | 0.0 | 1.7 | 0.00 | 0.00 | 0.00 | 99 | 1016.2 |
| 20260906091653 | 64 | 96 | 1.7 | 1.7 | 0.00 | 0.00 | 0.00 | 99 | 1016.1 |
| 20260906091149 | 64 | 92 | 1.7 | 2.6 | 0.00 | 0.00 | 0.00 | 99 | 1016.1 |
| 20260906090644 | 64 | 114 | 0.9 | 1.7 | 0.00 | 0.00 | 0.00 | 99 | 1016.1 |
| 20260906090143 | 64 | 106 | 1.7 | 1.7 | 0.00 | 0.00 | 0.00 | 99 | 1016.2 |
| 20260906085642 | 64 | 122 | 1.7 | 1.7 | 0.00 | 0.00 | 0.00 | 99 | 1016.0 |
| 20260906085137 | 64 | 125 | 1.7 | 2.6 | 0.00 | 0.00 | 0.00 | 99 | 1016.0 |
| 20260906084632 | 65 | 113 | 1.7 | 3.5 | 0.00 | 0.00 | 0.00 | 99 | 1015.8 |
| 20260906084131 | 65 | 105 | 3.5 | 3.5 | 0.00 | 0.00 | 0.00 | 99 | 1016.0 |
| 20260906083626 | 65 | 102 | 1.7 | 2.6 | 0.00 | 0.00 | 0.00 | 99 | 1016.0 |
| 20260906083120 | 65 | 104 | 1.7 | 2.6 | 0.00 | 0.00 | 0.00 | 99 | 1016.1 |
| 20260906082616 | 65 | 125 | 1.7 | 2.6 | 0.00 | 0.00 | 0.00 | 99 | 1016.1 |
| 20260906082112 | 65 | 106 | 1.7 | 3.5 | 0.00 | 0.00 | 0.00 | 99 | 1016.2 |
| 20260906081608 | 65 | 114 | 2.6 | 3.5 | 0.00 | 0.00 | 0.00 | 99 | 1016.2 |
| 20260906081102 | 65 | 107 | 1.7 | 2.6 | 0.00 | 0.00 | 0.00 | 98 | 1016.1 |
| 20260906080559 | 65 | 111 | 2.6 | 3.5 | 0.00 | 0.00 | 0.00 | 98 | 1016.2 |
| 20260906080055 | 65 | 116 | 2.6 | 2.6 | 0.00 | 0.00 | 0.00 | 98 | 1016.2 |
| 20260906075555 | 66 | 103 | 1.7 | 3.5 | 0.00 | 0.00 | 0.00 | 97 | 1016.3 |
| 20260906075049 | 66 | 107 | 0.9 | 3.5 | 0.00 | 0.00 | 0.00 | 97 | 1016.2 |
| 20260906074544 | 66 | 97 | 1.7 | 1.7 | 0.00 | 0.00 | 0.00 | 97 | 1016.4 |
| 20260906074038 | 66 | 107 | 1.7 | 2.6 | 0.00 | 0.00 | 0.00 | 97 | 1016.2 |
| 20260906073532 | 66 | 117 | 3.5 | 3.5 | 0.00 | 0.00 | 0.00 | 97 | 1016.1 |
| 20260906073028 | 66 | 106 | 1.7 | 3.5 | 0.00 | 0.00 | 0.00 | 96 | 1016.2 |
| 20260906072523 | 67 | 98 | 1.7 | 3.5 | 0.00 | 0.00 | 0.00 | 96 | 1016.2 |
| 20260906072014 | 67 | 109 | 2.6 | 2.6 | 0.00 | 0.00 | 0.00 | 96 | 1016.5 |
| 20260906071510 | 67 | 108 | 0.9 | 1.7 | 0.00 | 0.00 | 0.00 | 96 | 1016.6 |
| 20260906071005 | 67 | 105 | 0.9 | 1.7 | 0.00 | 0.00 | 0.00 | 96 | 1016.6 |
| 20260906070500 | 67 | 133 | 0.9 | 3.5 | 0.00 | 0.00 | 0.00 | 96 | 1016.7 |
| 20260906065955 | 67 | 115 | 1.7 | 1.7 | 0.00 | 0.00 | 0.00 | 95 | 1016.7 |
| 20260906065450 | 67 | 117 | 0.9 | 1.7 | 0.00 | 0.00 | 0.00 | 95 | 1016.8 |
| 20260906064945 | 67 | 112 | 1.7 | 2.6 | 0.00 | 0.00 | 0.00 | 95 | 1016.8 |
| 20260906064442 | 67 | 98 | 0.9 | 1.7 | 0.00 | 0.00 | 0.00 | 96 | 1017.0 |
| 20260906063936 | 67 | 135 | 0.0 | 0.9 | 0.00 | 0.00 | 0.00 | 96 | 1017.0 |
| 20260906063432 | 67 | 129 | 0.0 | 0.9 | 0.00 | 0.00 | 0.00 | 95 | 1016.8 |
| 20260906062932 | 67 | 134 | 0.9 | 1.7 | 0.00 | 0.00 | 0.00 | 95 | 1016.9 |
| 20260906062427 | 67 | 94 | 0.0 | 1.7 | 0.00 | 0.00 | 0.00 | 95 | 1017.0 |
| 20260906061922 | 67 | 101 | 0.9 | 0.9 | 0.00 | 0.00 | 0.00 | 95 | 1016.8 |
| 20260906061418 | 67 | 63 | 0.0 | 0.9 | 0.00 | 0.00 | 0.00 | 95 | 1016.8 |
| 20260906060913 | 67 | 111 | 0.9 | 1.7 | 0.00 | 0.00 | 0.00 | 95 | 1016.8 |
| 20260906060410 | 67 | 81 | 0.9 | 1.7 | 0.00 | 0.00 | 0.00 | 95 | 1016.8 |
| 20260906055906 | 67 | 101 | 1.7 | 1.7 | 0.00 | 0.00 | 0.00 | 95 | 1016.8 |
| 20260906055401 | 67 | 104 | 0.9 | 2.6 | 0.00 | 0.00 | 0.00 | 95 | 1016.8 |
| 20260906054856 | 67 | 94 | 0.9 | 1.7 | 0.00 | 0.00 | 0.00 | 95 | 1016.9 |
| 20260906054351 | 67 | 100 | 0.9 | 0.9 | 0.00 | 0.00 | 0.00 | 95 | 1016.9 |
| 20260906053847 | 67 | 37 | 0.0 | 0.9 | 0.00 | 0.00 | 0.00 | 94 | 1016.9 |
| 20260906053343 | 68 | 129 | 0.9 | 1.7 | 0.00 | 0.00 | 0.00 | 94 | 1016.8 |
| 20260906052838 | 68 | 121 | 0.0 | 2.6 | 0.00 | 0.00 | 0.00 | 94 | 1016.8 |
| 20260906052335 | 68 | 146 | 1.7 | 2.6 | 0.00 | 0.00 | 0.00 | 93 | 1016.6 |
| 20260906051831 | 68 | 142 | 2.6 | 2.6 | 0.00 | 0.00 | 0.00 | 93 | 1016.9 |
| 20260906051331 | 68 | 125 | 1.7 | 2.6 | 0.00 | 0.00 | 0.00 | 93 | 1016.9 |
| 20260906050826 | 68 | 150 | 1.7 | 2.6 | 0.00 | 0.00 | 0.00 | 93 | 1016.9 |
| 20260906050322 | 68 | 130 | 0.0 | 3.5 | 0.00 | 0.00 | 0.00 | 93 | 1016.5 |
| 20260906045820 | 68 | 114 | 3.5 | 5.2 | 0.00 | 0.00 | 0.00 | 93 | 1016.5 |
| 20260906045315 | 68 | 107 | 2.6 | 5.2 | 0.00 | 0.00 | 0.00 | 93 | 1016.4 |
| 20260906044811 | 68 | 140 | 2.6 | 5.2 | 0.00 | 0.00 | 0.00 | 92 | 1016.5 |
| 20260906044311 | 69 | 110 | 2.6 | 4.3 | 0.00 | 0.00 | 0.00 | 92 | 1016.5 |
| 20260906043806 | 69 | 124 | 1.7 | 3.5 | 0.00 | 0.00 | 0.00 | 92 | 1016.5 |
| 20260906043303 | 69 | 113 | 1.7 | 3.5 | 0.00 | 0.00 | 0.00 | 91 | 1016.5 |
| 20260906042757 | 69 | 110 | 3.5 | 5.2 | 0.00 | 0.00 | 0.00 | 91 | 1016.5 |
| 20260906042256 | 69 | 115 | 1.7 | 3.5 | 0.00 | 0.00 | 0.00 | 91 | 1016.6 |
| 20260906041752 | 69 | 116 | 1.7 | 3.5 | 0.00 | 0.00 | 0.00 | 91 | 1016.7 |
| 20260906041247 | 69 | 121 | 2.6 | 5.2 | 0.00 | 0.00 | 0.00 | 90 | 1016.5 |
| 20260906040742 | 70 | 122 | 2.6 | 3.5 | 0.00 | 0.00 | 0.00 | 90 | 1016.5 |
| 20260906040237 | 70 | 122 | 1.7 | 5.2 | 0.00 | 0.00 | 0.00 | 90 | 1016.5 |
| 20260906035732 | 70 | 119 | 2.6 | 3.5 | 0.00 | 0.00 | 0.00 | 89 | 1016.6 |
| 20260906035223 | 70 | 121 | 3.5 | 5.2 | 0.00 | 0.00 | 0.00 | 89 | 1016.4 |
| 20260906034722 | 70 | 117 | 2.6 | 4.3 | 0.00 | 0.00 | 0.00 | 89 | 1016.4 |
| 20260906034217 | 70 | 116 | 3.5 | 4.3 | 0.00 | 0.00 | 0.00 | 89 | 1016.4 |
| 20260906033713 | 70 | 115 | 3.5 | 4.3 | 0.00 | 0.00 | 0.00 | 89 | 1016.6 |
| 20260906033207 | 70 | 121 | 1.7 | 3.5 | 0.00 | 0.00 | 0.00 | 89 | 1016.5 |
| 20260906032704 | 70 | 127 | 1.7 | 3.5 | 0.00 | 0.00 | 0.00 | 89 | 1016.5 |
| 20260906032204 | 70 | 93 | 1.7 | 2.6 | 0.00 | 0.00 | 0.00 | 89 | 1016.4 |
| 20260906031659 | 70 | 124 | 1.7 | 2.6 | 0.00 | 0.00 | 0.00 | 89 | 1016.5 |
| 20260906031154 | 70 | 119 | 1.7 | 2.6 | 0.00 | 0.00 | 0.00 | 88 | 1016.7 |
| 20260906030654 | 70 | 112 | 1.7 | 2.6 | 0.00 | 0.00 | 0.00 | 88 | 1016.6 |
| 20260906030149 | 70 | 117 | 1.7 | 3.5 | 0.00 | 0.00 | 0.00 | 88 | 1016.6 |
| 20260906025648 | 70 | 116 | 0.9 | 2.6 | 0.00 | 0.00 | 0.00 | 88 | 1016.7 |
| 20260906025148 | 70 | 117 | 1.7 | 2.6 | 0.00 | 0.00 | 0.00 | 88 | 1016.7 |
| 20260906024642 | 70 | 96 | 0.9 | 2.6 | 0.00 | 0.00 | 0.00 | 87 | 1016.9 |
| 20260906024136 | 70 | 106 | 1.7 | 3.5 | 0.00 | 0.00 | 0.00 | 87 | 1016.8 |
| 20260906023632 | 70 | 99 | 1.7 | 2.6 | 0.00 | 0.00 | 0.00 | 87 | 1016.6 |
| 20260906023132 | 71 | 125 | 2.6 | 3.5 | 0.00 | 0.00 | 0.00 | 87 | 1016.8 |
| 20260906022627 | 70 | 110 | 2.6 | 3.5 | 0.00 | 0.00 | 0.00 | 87 | 1016.8 |
| 20260906022123 | 70 | 145 | 0.0 | 1.7 | 0.00 | 0.00 | 0.00 | 87 | 1017.1 |
| 20260906021619 | 71 | 111 | 0.0 | 1.7 | 0.00 | 0.00 | 0.00 | 87 | 1016.9 |
| 20260906021118 | 71 | 37 | 0.0 | 0.9 | 0.00 | 0.00 | 0.00 | 86 | 1016.9 |
| 20260906020617 | 71 | 102 | 0.0 | 1.7 | 0.00 | 0.00 | 0.00 | 85 | 1016.8 |
| 20260906020113 | 71 | 116 | 1.7 | 2.6 | 0.00 | 0.00 | 0.00 | 85 | 1016.8 |
| 20260906015612 | 72 | 116 | 1.7 | 2.6 | 0.00 | 0.00 | 0.00 | 85 | 1016.7 |
| 20260906015111 | 72 | 106 | 0.0 | 1.7 | 0.00 | 0.00 | 0.00 | 85 | 1016.7 |
| 20260906014606 | 72 | 122 | 0.0 | 1.7 | 0.00 | 0.00 | 0.00 | 85 | 1016.7 |
| 20260906014102 | 72 | 103 | 0.0 | 0.9 | 0.00 | 0.00 | 0.00 | 85 | 1016.6 |
| 20260906013557 | 72 | 96 | 0.9 | 3.5 | 0.00 | 0.00 | 0.00 | 84 | 1016.3 |
| 20260906013052 | 72 | 117 | 1.7 | 1.7 | 0.00 | 0.00 | 0.00 | 84 | 1016.3 |
| 20260906012547 | 73 | 118 | 1.7 | 3.5 | 0.00 | 0.00 | 0.00 | 84 | 1016.1 |
| 20260906012047 | 73 | 114 | 2.6 | 3.5 | 0.00 | 0.00 | 0.00 | 83 | 1016.2 |
| 20260906011543 | 73 | 116 | 2.6 | 3.5 | 0.00 | 0.00 | 0.00 | 83 | 1016.0 |
| 20260906011043 | 73 | 109 | 2.6 | 2.6 | 0.00 | 0.00 | 0.00 | 82 | 1016.0 |
| 20260906010538 | 73 | 140 | 1.7 | 2.6 | 0.00 | 0.00 | 0.00 | 82 | 1015.8 |
| 20260906010034 | 74 | 131 | 1.7 | 2.6 | 0.00 | 0.00 | 0.00 | 82 | 1015.4 |
| 20260906005533 | 74 | 116 | 2.6 | 3.5 | 0.00 | 0.00 | 0.00 | 81 | 1015.5 |
| 20260906005032 | 74 | 132 | 1.7 | 5.2 | 0.00 | 0.00 | 0.00 | 80 | 1015.0 |
| 20260906004527 | 75 | 123 | 0.9 | 3.5 | 0.00 | 0.00 | 0.00 | 80 | 1015.1 |
| 20260906004022 | 75 | 113 | 2.6 | 2.6 | 0.00 | 0.00 | 0.00 | 79 | 1014.9 |
| 20260906003517 | 75 | 107 | 4.3 | 4.3 | 0.00 | 0.00 | 0.00 | 79 | 1014.8 |
| 20260906003013 | 76 | 121 | 2.6 | 3.5 | 0.00 | 0.00 | 0.00 | 78 | 1014.8 |
| 20260906002513 | 77 | 117 | 1.7 | 4.3 | 0.00 | 0.00 | 0.00 | 76 | 1014.9 |
| 20260906002008 | 78 | 121 | 1.7 | 4.3 | 0.00 | 0.00 | 0.00 | 75 | 1014.6 |
| 20260906001503 | 78 | 124 | 5.2 | 5.2 | 0.00 | 0.00 | 0.00 | 74 | 1014.6 |
| 20260906000952 | 79 | 121 | 1.7 | 3.5 | 0.00 | 0.00 | 0.00 | 73 | 1014.4 |
| 20260906000448 | 79 | 130 | 2.6 | 3.5 | 0.00 | 0.00 | 0.00 | 73 | 1014.6 |
| 20260905235948 | 79 | 135 | 2.6 | 3.5 | 0.00 | 0.00 | 0.00 | 72 | 1014.4 |
| 20260905235442 | 79 | 125 | 7.0 | 7.0 | 0.00 | 0.00 | 0.00 | 72 | 1014.4 |
| 20260905234937 | 80 | 167 | 2.6 | 7.8 | 0.00 | 0.00 | 0.00 | 71 | 1014.5 |
| 20260905234432 | 80 | 147 | 1.7 | 3.5 | 0.00 | 0.00 | 0.00 | 71 | 1014.2 |
| 20260905233927 | 80 | 119 | 3.5 | 4.3 | 0.00 | 0.00 | 0.00 | 71 | 1014.1 |
| 20260905233423 | 80 | 116 | 4.3 | 5.2 | 0.00 | 0.00 | 0.00 | 71 | 1014.0 |
| 20260905232921 | 81 | 126 | 1.7 | 5.2 | 0.00 | 0.00 | 0.00 | 71 | 1013.7 |
| 20260905232418 | 81 | 118 | 1.7 | 7.0 | 0.00 | 0.00 | 0.00 | 70 | 1013.6 |
| 20260905231913 | 81 | 116 | 3.5 | 3.5 | 0.00 | 0.00 | 0.00 | 71 | 1013.6 |
| 20260905231408 | 80 | 118 | 4.3 | 5.2 | 0.00 | 0.00 | 0.00 | 71 | 1013.8 |
| 20260905230904 | 81 | 124 | 5.2 | 5.2 | 0.00 | 0.00 | 0.00 | 72 | 1013.6 |
| 20260905230402 | 81 | 140 | 3.5 | 6.1 | 0.00 | 0.00 | 0.00 | 72 | 1013.4 |
| 20260905225856 | 80 | 136 | 2.6 | 6.1 | 0.00 | 0.00 | 0.00 | 74 | 1013.3 |
| 20260905225350 | 81 | 119 | 3.5 | 7.0 | 0.00 | 0.00 | 0.00 | 73 | 1013.5 |
| 20260905224845 | 81 | 128 | 5.2 | 5.2 | 0.00 | 0.00 | 0.00 | 73 | 1013.6 |
| 20260905224341 | 81 | 141 | 3.5 | 5.2 | 0.00 | 0.00 | 0.00 | 73 | 1013.6 |
| 20260905223835 | 81 | 110 | 5.2 | 11.3 | 0.00 | 0.00 | 0.00 | 73 | 1013.6 |
| 20260905223333 | 81 | 117 | 5.2 | 5.2 | 0.00 | 0.00 | 0.00 | 73 | 1013.8 |
| 20260905222828 | 81 | 117 | 6.1 | 9.6 | 0.00 | 0.00 | 0.00 | 73 | 1014.0 |
| 20260905222327 | 82 | 117 | 2.6 | 8.7 | 0.00 | 0.00 | 0.00 | 73 | 1014.0 |
| 20260905221823 | 82 | 126 | 2.6 | 5.2 | 0.00 | 0.00 | 0.00 | 73 | 1014.3 |
| 20260905221320 | 82 | 87 | 3.5 | 4.3 | 0.00 | 0.00 | 0.00 | 71 | 1014.4 |
| 20260905220815 | 82 | 87 | 3.5 | 7.8 | 0.00 | 0.00 | 0.00 | 71 | 1014.3 |
| 20260905220312 | 83 | 61 | 1.7 | 7.0 | 0.00 | 0.00 | 0.00 | 71 | 1014.3 |
| 20260905215810 | 83 | 116 | 1.7 | 8.7 | 0.00 | 0.00 | 0.00 | 70 | 1014.4 |
| 20260905215306 | 83 | 26 | 0.9 | 5.2 | 0.00 | 0.00 | 0.00 | 70 | 1014.5 |
| 20260905214802 | 84 | 62 | 2.6 | 4.3 | 0.00 | 0.00 | 0.00 | 66 | 1014.5 |
| 20260905214258 | 84 | 116 | 1.7 | 5.2 | 0.00 | 0.00 | 0.00 | 67 | 1014.5 |
| 20260905213753 | 84 | 49 | 1.7 | 3.5 | 0.00 | 0.00 | 0.00 | 66 | 1014.7 |
| 20260905213249 | 84 | 42 | 0.9 | 3.5 | 0.00 | 0.00 | 0.00 | 66 | 1014.9 |
| 20260905212744 | 85 | 44 | 3.5 | 3.5 | 0.00 | 0.00 | 0.00 | 67 | 1014.8 |
| 20260905212243 | 84 | 158 | 0.9 | 3.5 | 0.00 | 0.00 | 0.00 | 68 | 1014.9 |
| 20260905211743 | 84 | 113 | 1.7 | 7.0 | 0.00 | 0.00 | 0.00 | 66 | 1014.6 |
| 20260905211238 | 84 | 133 | 2.6 | 3.5 | 0.00 | 0.00 | 0.00 | 67 | 1015.0 |
| 20260905210735 | 84 | 51 | 2.6 | 3.5 | 0.00 | 0.00 | 0.00 | 66 | 1014.9 |
| 20260905210234 | 84 | 67 | 6.1 | 6.1 | 0.00 | 0.00 | 0.00 | 66 | 1014.9 |
| 20260905205733 | 83 | 118 | 6.1 | 7.8 | 0.00 | 0.00 | 0.00 | 67 | 1015.1 |
| 20260905205228 | 83 | 120 | 1.7 | 5.2 | 0.00 | 0.00 | 0.00 | 68 | 1015.1 |
| 20260905204728 | 83 | 57 | 1.7 | 3.5 | 0.00 | 0.00 | 0.00 | 68 | 1015.1 |
| 20260905204224 | 82 | 117 | 3.5 | 7.8 | 0.00 | 0.00 | 0.00 | 67 | 1015.2 |
| 20260905203723 | 83 | 140 | 0.0 | 2.6 | 0.00 | 0.00 | 0.00 | 68 | 1015.2 |
| 20260905203219 | 82 | 123 | 3.5 | 4.3 | 0.00 | 0.00 | 0.00 | 71 | 1015.4 |
| 20260905202715 | 82 | 54 | 1.7 | 3.5 | 0.00 | 0.00 | 0.00 | 69 | 1015.3 |
| 20260905202215 | 82 | 123 | 1.7 | 4.3 | 0.00 | 0.00 | 0.00 | 71 | 1015.5 |
| 20260905201711 | 81 | 122 | 2.6 | 5.2 | 0.00 | 0.00 | 0.00 | 70 | 1015.5 |
| 20260905201210 | 82 | 82 | 1.7 | 3.5 | 0.00 | 0.00 | 0.00 | 70 | 1015.7 |